This demonstration page uses our WeatherBlox Daily Observations layout. Learn more.

40.92945, -100.16068

Hourly Observations for June 14, 2018

Temp ( °F °C ) Dew Point ( °F °C ) Humidity (%) Winds ( mph kmh ) Pressure ( in mb ) Visibility ( mi km ) Precip ( " mm )
12:15 am 00:15 Clear 72 22.4 66 18.8 80 80 SE 12 19 29.83 1010 10 16.0934 0 0
12:35 am 00:35 Clear 72 22 66 18.7 82 82 SE 10 17 29.8 1009 10 16.0934 0 0
12:55 am 00:55 Clear 72 22 66 19 83 83 SE 10 17 29.8 1009 10 16.0934 0 0
1:15 am 01:15 Clear 71 21.8 66 19 84 84 SE 10 17 29.8 1009 10 16.0934 0 0
1:35 am 01:35 Clear 71 21.8 67 19.2 85 85 SSE 10 17 29.8 1009 10 16.0934 0 0
1:55 am 01:55 Clear 71 21.6 67 19.3 87 87 SSE 9 15 29.8 1009 10 16.0934 0 0
2:15 am 02:15 Clear 71 21.6 67 19.4 87 87 SSE 10 17 29.8 1009 10 16.0934 0 0
2:35 am 02:35 Clear 71 21.8 67 19.5 87 87 SSE 9 15 29.8 1009 10 16.0934 0 0
2:55 am 02:55 Clear 71 21.6 67 19.5 88 88 SSE 10 17 29.77 1008 10 16.0934 0 0
3:15 am 03:15 Clear 71 21.7 67 19.2 86 86 SSE 10 17 29.77 1008 10 16.0934 0 0
3:35 am 03:35 Clear 71 21.8 66 18.8 83 83 SSE 8 13 29.77 1008 10 16.0934 0 0
3:55 am 03:55 Clear 72 22 65 18.5 81 81 SSE 10 17 29.74 1007 10 16.0934 0 0
4:15 am 04:15 Clear 72 22 64 18 78 78 SSE 9 15 29.74 1007 10 16.0934 0 0
4:35 am 04:35 Clear 71 21.6 64 17.8 79 79 SSE 7 11 29.71 1006 10 16.0934 0 0
4:55 am 04:55 Clear 71 21.5 63 17.3 77 77 SSE 8 13 29.71 1006 10 16.0934 0 0
5:15 am 05:15 Clear 70 21.1 63 17 78 78 SSE 9 15 29.74 1007 10 16.0934 0 0
5:35 am 05:35 Clear 69 20.7 62 16.7 78 78 SSE 7 11 29.74 1007 10 16.0934 0 0
5:55 am 05:55 Clear 69 20.5 62 16.7 79 79 SSE 8 13 29.74 1007 10 16.0934 0 0
6:15 am 06:15 Sunny 69 20.6 62 16.6 78 78 SSE 8 13 29.74 1007 10 16.0934 0 0
6:35 am 06:35 Sunny 70 21.1 62 16.5 75 75 SSE 9 15 29.74 1007 10 16.0934 0 0
6:55 am 06:55 Sunny 70 21.2 62 16.5 75 75 S 8 13 29.74 1007 10 16.0934 0 0
7:15 am 07:15 Sunny 71 21.6 62 16.9 75 75 S 7 11 29.71 1006 10 16.0934 0 0
7:35 am 07:35 Partly Cloudy 72 22.4 63 17 72 72 S 10 17 29.71 1006 10 16.0934 0 0
7:55 am 07:55 Sunny 73 23 63 17.2 70 70 S 12 19 29.68 1005 10 16.0934 0 0
8:15 am 08:15 Sunny 75 23.7 63 17.1 67 67 S 14 22 29.68 1005 10 16.0934 0 0
8:35 am 08:35 Sunny 76 24.5 63 17.1 63 63 S 16 26 29.68 1005 10 16.0934 0 0
8:55 am 08:55 Sunny 77 25 63 17.2 62 62 S 15 24 29.65 1004 10 16.0934 0 0
9:15 am 09:15 Sunny 78 25.7 63 17.3 60 60 SSW 18 30 29.65 1004 10 16.0934 0 0
9:35 am 09:35 Sunny 80 26.5 64 17.7 59 59 S 15 24 29.65 1004 10 16.0934 0 0
9:55 am 09:55 Sunny 80 26.9 63 17.3 56 56 SSW 12 19 29.65 1004 10 16.0934 0 0
10:15 am 10:15 Sunny 81 27.4 63 17.3 54 54 SSW 15 24 29.65 1004 10 16.0934 0 0
10:35 am 10:35 Sunny 82 28 63 17.4 53 53 S 16 26 29.65 1004 10 16.0934 0 0
10:55 am 10:55 Sunny 83 28.5 64 17.5 51 51 SSW 14 22 29.62 1003 10 16.0934 0 0
11:15 am 11:15 Sunny 85 29.3 64 17.8 50 50 S 12 19 29.59 1002 10 16.0934 0 0
11:35 am 11:35 Sunny 87 30.3 64 17.6 47 47 S 12 19 29.59 1002 10 16.0934 0 0
11:55 am 11:55 Sunny 89 31.5 63 17.2 42 42 S 12 19 29.59 1002 10 16.0934 0 0
12:15 pm 12:15 Sunny 90 32.1 63 17 40 40 S 16 26 29.56 1001 10 16.0934 0 0
12:35 pm 12:35 Sunny 91 32.5 62 16.4 38 38 SSW 15 24 29.56 1001 10 16.0934 0 0
12:55 pm 12:55 Sunny 92 33.5 62 16.5 36 36 S 17 28 29.56 1001 10 16.0934 0 0
1:15 pm 13:15 Sunny 93 33.9 62 16.8 36 36 SSE 17 28 29.56 1001 10 16.0934 0 0
1:35 pm 13:35 Sunny 93 34.1 62 16.8 36 36 SSE 20 31 29.56 1001 10 16.0934 0 0
1:55 pm 13:55 Sunny 94 34.6 62 16.7 34 34 SSE 18 30 29.56 1001 10 16.0934 0 0
2:15 pm 14:15 Sunny 95 35.1 61 16 32 32 S 22 35 29.53 1000 10 16.0934 0 0
2:35 pm 14:35 Sunny 97 36.2 60 15.4 29 29 SSE 22 35 29.5 999 10 16.0934 0 0
2:55 pm 14:55 Sunny 98 36.8 57 13.9 25 25 S 24 39 29.5 999 10 16.0934 0 0
3:15 pm 15:15 Sunny 99 37 57 13.9 25 25 S 23 37 29.5 999 10 16.0934 0 0
3:35 pm 15:35 Sunny 98 36.9 58 14.4 26 26 S 25 41 29.5 999 10 16.0934 0 0
3:55 pm 15:55 Sunny 99 37 59 14.8 27 27 S 22 35 29.47 998 10 16.0934 0 0
4:15 pm 16:15 Sunny 98 36.9 57 14.1 26 26 S 25 41 29.47 998 10 16.0934 0 0
4:35 pm 16:35 Sunny 99 37.1 59 14.8 26 26 S 22 35 29.47 998 10 16.0934 0 0
4:55 pm 16:55 Sunny 99 37 57 14.1 25 25 S 24 39 29.47 998 10 16.0934 0 0
5:15 pm 17:15 Sunny 99 37 57 13.9 25 25 S 21 33 29.47 998 10 16.0934 0 0
5:35 pm 17:35 Sunny 98 36.7 58 14.7 27 27 SSE 22 35 29.47 998 10 16.0934 0 0
5:55 pm 17:55 Sunny 97 36.2 58 14.5 27 27 SSE 21 33 29.47 998 10 16.0934 0 0
6:15 pm 18:15 Sunny 97 36 58 14.2 27 27 S 20 31 29.47 998 10 16.0934 0 0
6:35 pm 18:35 Sunny 96 35.5 57 14.1 28 28 S 17 28 29.47 998 10 16.0934 0 0
6:55 pm 18:55 Sunny 95 35.2 56 13.6 27 27 S 21 33 29.47 998 10 16.0934 0 0
7:15 pm 19:15 Sunny 95 34.8 57 14 29 29 SSE 16 26 29.5 999 10 16.0934 0 0
7:35 pm 19:35 Sunny 93 34 57 13.9 30 30 SSE 17 28 29.5 999 10 16.0934 0 0
7:55 pm 19:55 Sunny 92 33.3 57 13.8 31 31 SSE 16 26 29.5 999 10 16.0934 0 0
8:15 pm 20:15 Sunny 90 32.1 57 14 33 33 SSE 15 24 29.5 999 10 16.0934 0 0
8:35 pm 20:35 Sunny 90 32.2 57 14 33 33 SSE 20 31 29.5 999 10 16.0934 0 0
8:55 pm 20:55 Sunny 89 31.5 58 14.3 35 35 SSE 17 28 29.5 999 10 16.0934 0 0
9:15 pm 21:15 Clear 88 31 58 14.4 36 36 SSE 16 26 29.53 1000 10 16.0934 0 0
9:35 pm 21:35 Clear 87 30.5 58 14.6 38 38 SSE 18 30 29.53 1000 10 16.0934 0 0
9:55 pm 21:55 Clear 85 29.7 59 15 41 41 SSE 17 28 29.53 1000 10 16.0934 0 0
10:15 pm 22:15 Clear 85 29.5 58 14.7 41 41 S 16 26 29.53 1000 10 16.0934 0 0
10:35 pm 22:35 Clear 85 29.5 58 14.5 40 40 S 15 24 29.53 1000 10 16.0934 0 0
10:55 pm 22:55 Clear 85 29.5 58 14.7 41 41 S 18 30 29.53 1000 10 16.0934 0 0
11:15 pm 23:15 Clear 85 29.5 59 15 41 41 S 20 31 29.53 1000 10 16.0934 0 0
11:35 pm 23:35 Clear 84 29.1 60 15.3 43 43 S 21 33 29.53 1000 10 16.0934 0 0
11:55 pm 23:55 Clear 84 29 60 15.5 44 44 SSE 22 35 29.53 1000 10 16.0934 0 0

Powered by AerisWeather